Regional Weather Roundup
Issued by NWS

Home | Current Version | Previous Version | Graphics & Text | Print | Product List | Glossary On
Versions: 1 2 3 4 5 6 7 8 9 10 11 12 13 14 15 16 17 18 19 20 21 22 23 24 25 26 27 28 29 30 31 32 33 34 35 36 37 38 39 40 41 42 43 44 45 46 47 48 49 50
000
ASUS44 KMEG 060200
RWRTN
TENNESSEE HOURLY STATE WEATHER ROUNDUP
NATIONAL WEATHER SERVICE MEMPHIS TN
900 PM CDT SUN JUL 05 2015

TNZ002-004-019-021-049-052-054-088>092-060300-
WEST TENNESSEE

CITY           SKY/WX    TMP DP  RH WIND       PRES   REMARKS
MEMPHIS INTL   PTCLDY    77  71  82 SW6       30.07R
NWS MEMPHIS      N/A     77 N/A N/A MISG        N/A
JACKSON        CLEAR     75  70  84 S5        30.06R
DYERSBURG        N/A    N/A N/A N/A MISG        N/A
PARIS          PTCLDY    73  72  94 CALM      30.07R
LEXINGTON      CLEAR     73  72  94 CALM      30.06R
$$

TNZ008-025-027-028-033-062-065-066-060300-
NORTH MIDDLE TENNESSEE

CITY           SKY/WX    TMP DP  RH WIND       PRES   REMARKS
NASHVILLE      PTCLDY    77  70  79 CALM      30.07R
CLARKSVILLE    CLEAR     73  68  84 CALM      30.06R
COOKEVILLE     CLEAR     72  72 100 CALM      30.09R
CROSSVILLE     PTCLDY    70  64  81 W3        30.14R
$$

TNZ061-075-076-078-094-096-097-060300-
SOUTH MIDDLE TENNESSEE

CITY           SKY/WX    TMP DP  RH WIND       PRES   REMARKS
FAYETTEVILLE   CLEAR     72  70  94 CALM      30.11R
TULLAHOMA      CLEAR     72  66  83 CALM      30.12R
WINCHESTER     CLEAR     72  70  94 S3        30.12R
COLUMBIA       CLEAR     75  73  94 S6        30.08R
SHELBYVILLE    CLEAR     75  72  88 SW6         N/A
$$

TNZ017-018-042-046-047-060300-
NORTHEAST TENNESSEE

CITY           SKY/WX    TMP DP  RH WIND       PRES   REMARKS
TRI CITIES     MOCLDY    70  67  90 SW3       30.09R
ELIZABETHTON   LGT RAIN  66  66 100 SE3       30.10S FOG
$$

TNZ012-013-036-069-073-074-060300-
CENTRAL EAST TENNESSEE

CITY           SKY/WX    TMP DP  RH WIND       PRES   REMARKS
KNOXVILLE      CLOUDY    70  66  87 SW7       30.09R
OAK RIDGE      LGT RAIN  72  68  87 CALM      30.11R
GATLINBURG     MOCLDY    70  63  78 SW8       30.09R
$$

TNZ083-085-099-060300-
SOUTHEAST TENNESSEE

CITY           SKY/WX    TMP DP  RH WIND       PRES   REMARKS
CHATTANOOGA    MOCLDY    77  67  71 SW5       30.11R
$$

SKY/WX REPORTED AS FAIR MEANS FEW OR NO CLOUDS BELOW
12 THOUSAND FEET.




USA.gov is the U.S. government's official web portal to all federal, state and local government web resources and services.